When you browse on this site, cookies collect data to enhance your experience and personalize the content and advertising you see.
Visit our Privacy Policy to learn more. By continuing to use the site, you agree to this use of cookies and data.
  • In Hungary
  • List of Countries
  • For 7 days
  • Water Temperature
  • Satellite Maps
  • Weather Map
  • News
  • Weather Widgets
  • user-avatar
    Login

    Hourly Weather Akshubino

    Today, 21 November, Wednesday

    Time Temperature Precipitation Wind Pressure Humidity
    00:00 -7°C° 0 mm 4 mps 749 mmHg 83%
    01:00 -7°C° 0 mm 4 mps 749 mmHg 82%
    02:00 -7°C° 0 mm 4 mps 748 mmHg 82%
    03:00 -7°C° 0 mm 5 mps 748 mmHg 81%
    04:00 -6°C° 0.1 mm 5 mps 748 mmHg 82%
    05:00 -6°C° 0.1 mm 5 mps 747 mmHg 83%
    06:00 -6°C° 0.1 mm 5 mps 747 mmHg 84%
    07:00 -5°C° 0.1 mm 5 mps 746 mmHg 84%
    08:00 -5°C° 0.1 mm 5 mps 746 mmHg 84%
    09:00 -5°C° 0 mm 5 mps 745 mmHg 84%
    10:00 -4°C° 0.2 mm 6 mps 745 mmHg 82%
    11:00 -4°C° 0.2 mm 6 mps 745 mmHg 80%
    12:00 -3°C° 0.2 mm 7 mps 745 mmHg 78%
    13:00 -4°C° 0 mm 6 mps 746 mmHg 76%
    14:00 -4°C° 0 mm 6 mps 746 mmHg 74%
    15:00 -4°C° 0 mm 3 mps 746 mmHg 78%
    16:00 -5°C° 0 mm 4 mps 746 mmHg 78%
    17:00 -6°C° 0 mm 5 mps 746 mmHg 79%
    18:00 -6°C° 0 mm 5 mps 746 mmHg 79%
    19:00 -7°C° 0 mm 5 mps 746 mmHg 79%
    20:00 -7°C° 0 mm 5 mps 746 mmHg 80%
    21:00 -7°C° 0 mm 5 mps 746 mmHg 80%
    22:00 -8°C° 0 mm 4 mps 746 mmHg 82%
    23:00 -8°C° 0 mm 4 mps 746 mmHg 83%

    Tomorrow, 22 November, Thursday

    Time Temperature Precipitation Wind Pressure Humidity
    00:00 -8°C° 0 mm 4 mps 746 mmHg 84%
    01:00 -8°C° 0 mm 4 mps 746 mmHg 86%
    02:00 -8°C° 0 mm 4 mps 745 mmHg 88%
    03:00 -8°C° 0 mm 4 mps 745 mmHg 90%
    04:00 -8°C° 0 mm 4 mps 744 mmHg 90%
    05:00 -8°C° 0 mm 4 mps 744 mmHg 90%
    06:00 -8°C° 0 mm 4 mps 743 mmHg 90%
    07:00 -8°C° 0.1 mm 5 mps 743 mmHg 88%
    08:00 -7°C° 0.1 mm 5 mps 742 mmHg 85%
    09:00 -6°C° 0.1 mm 6 mps 741 mmHg 83%
    10:00 -6°C° 0.2 mm 6 mps 740 mmHg 82%
    11:00 -7°C° 0.2 mm 7 mps 739 mmHg 82%
    12:00 -7°C° 0.2 mm 7 mps 738 mmHg 81%
    13:00 -6°C° 0.5 mm 7 mps 737 mmHg 82%
    14:00 -6°C° 0.5 mm 7 mps 737 mmHg 83%
    15:00 -6°C° 0.5 mm 7 mps 736 mmHg 84%
    16:00 -5°C° 0.2 mm 6 mps 736 mmHg 84%
    17:00 -5°C° 0.2 mm 5 mps 735 mmHg 84%
    18:00 -5°C° 0.2 mm 5 mps 735 mmHg 84%
    19:00 -5°C° 0.1 mm 4 mps 735 mmHg 86%
    20:00 -5°C° 0.1 mm 3 mps 735 mmHg 88%
    21:00 -6°C° 0.1 mm 3 mps 735 mmHg 89%
    22:00 -6°C° 0.2 mm 3 mps 735 mmHg 89%
    23:00 -6°C° 0.2 mm 3 mps 736 mmHg 89%

    Day after tomorrow, 23 November, Friday

    Time Temperature Precipitation Wind Pressure Humidity
    00:00 -7°C° 0.2 mm 3 mps 736 mmHg 88%
    01:00 -8°C° 0.2 mm 4 mps 737 mmHg 87%
    02:00 -9°C° 0.2 mm 4 mps 738 mmHg 86%
    03:00 -10°C° 0.2 mm 5 mps 739 mmHg 85%
    04:00 -11°C° 0 mm 5 mps 740 mmHg 84%
    05:00 -11°C° 0 mm 5 mps 741 mmHg 82%
    06:00 -11°C° 0 mm 4 mps 742 mmHg 80%
    07:00 -12°C° 0 mm 5 mps 743 mmHg 81%
    08:00 -11°C° 0 mm 5 mps 744 mmHg 82%
    09:00 -11°C° 0 mm 5 mps 745 mmHg 83%
    10:00 -11°C° 0 mm 6 mps 745 mmHg 81%
    11:00 -10°C° 0 mm 6 mps 746 mmHg 79%
    12:00 -10°C° 0 mm 6 mps 746 mmHg 77%
    13:00 -10°C° 0 mm 6 mps 747 mmHg 77%
    14:00 -11°C° 0 mm 5 mps 748 mmHg 77%
    15:00 -11°C° 0 mm 5 mps 748 mmHg 78%
    16:00 -11°C° 0 mm 5 mps 749 mmHg 79%
    17:00 -11°C° 0 mm 4 mps 749 mmHg 81%
    18:00 -11°C° 0 mm 4 mps 749 mmHg 83%
    19:00 -11°C° 0 mm 4 mps 750 mmHg 83%
    20:00 -10°C° 0 mm 4 mps 750 mmHg 84%
    21:00 -10°C° 0 mm 4 mps 750 mmHg 85%
    22:00 -10°C° 0.1 mm 4 mps 750 mmHg 85%
    23:00 -9°C° 0.1 mm 4 mps 749 mmHg 86%

    24 November, Saturday

    Time Temperature Precipitation Wind Pressure Humidity
    00:00 -9°C° 0.1 mm 4 mps 749 mmHg 87%
    01:00 -9°C° 0 mm 4 mps 749 mmHg 88%
    02:00 -9°C° 0 mm 4 mps 749 mmHg 88%
    03:00 -9°C° 0 mm 4 mps 749 mmHg 88%
    04:00 -9°C° 0 mm 4 mps 749 mmHg 88%
    05:00 -9°C° 0 mm 4 mps 748 mmHg 88%
    06:00 -10°C° 0 mm 5 mps 748 mmHg 88%
    07:00 -10°C° 0 mm 5 mps 748 mmHg 88%
    08:00 -10°C° 0 mm 5 mps 747 mmHg 88%
    09:00 -10°C° 0 mm 6 mps 747 mmHg 88%
    10:00 -9°C° 0.1 mm 6 mps 747 mmHg 86%
    11:00 -8°C° 0.1 mm 6 mps 746 mmHg 84%
    12:00 -8°C° 0.1 mm 6 mps 746 mmHg 82%
    13:00 -6°C° 0.1 mm 6 mps 746 mmHg 82%
    14:00 -6°C° 0.1 mm 6 mps 745 mmHg 82%
    15:00 -5°C° 0.1 mm 6 mps 745 mmHg 81%
    16:00 -5°C° 0 mm 6 mps 745 mmHg 82%
    17:00 -6°C° 0 mm 6 mps 745 mmHg 83%
    18:00 -6°C° 0 mm 6 mps 745 mmHg 84%
    19:00 -6°C° 0 mm 5 mps 745 mmHg 84%
    20:00 -6°C° 0 mm 5 mps 745 mmHg 85%
    21:00 -6°C° 0 mm 5 mps 745 mmHg 86%
    22:00 -6°C° 0 mm 5 mps 745 mmHg 86%
    23:00 -6°C° 0 mm 5 mps 745 mmHg 86%

    25 November, Sunday

    Time Temperature Precipitation Wind Pressure Humidity
    00:00 -6°C° 0 mm 5 mps 744 mmHg 86%
    01:00 -6°C° 0.1 mm 5 mps 744 mmHg 87%
    02:00 -6°C° 0.1 mm 5 mps 744 mmHg 87%
    03:00 -6°C° 0.1 mm 5 mps 744 mmHg 88%
    04:00 -6°C° 0.2 mm 5 mps 743 mmHg 88%
    05:00 -6°C° 0.2 mm 5 mps 743 mmHg 89%
    06:00 -6°C° 0.2 mm 5 mps 742 mmHg 90%
    07:00 -6°C° 0.2 mm 5 mps 743 mmHg 89%
    08:00 -5°C° 0.2 mm 5 mps 743 mmHg 87%
    09:00 -5°C° 0.2 mm 6 mps 743 mmHg 86%
    10:00 -5°C° 0.1 mm 5 mps 744 mmHg 84%
    11:00 -4°C° 0.1 mm 5 mps 744 mmHg 82%
    12:00 -4°C° 0.1 mm 5 mps 745 mmHg 79%
    13:00 -5°C° 0 mm 5 mps 745 mmHg 80%
    14:00 -4°C° 0 mm 4 mps 746 mmHg 82%
    15:00 -4°C° 0 mm 4 mps 747 mmHg 83%
    16:00 -5°C° 0 mm 3 mps 747 mmHg 84%
    17:00 -5°C° 0 mm 3 mps 748 mmHg 85%
    18:00 -5°C° 0 mm 2 mps 748 mmHg 86%
    19:00 -5°C° 0 mm 2 mps 748 mmHg 87%
    20:00 -5°C° 0 mm 2 mps 748 mmHg 88%
    21:00 -5°C° 0 mm 2 mps 748 mmHg 90%
    22:00 -5°C° 0 mm 2 mps 749 mmHg 90%
    23:00 -5°C° 0 mm 2 mps 749 mmHg 91%

    26 November, Monday

    Time Temperature Precipitation Wind Pressure Humidity
    00:00 -6°C° 0 mm 2 mps 749 mmHg 92%
    01:00 -6°C° 0 mm 2 mps 748 mmHg 93%
    02:00 -6°C° 0 mm 2 mps 748 mmHg 93%
    03:00 -6°C° 0 mm 2 mps 748 mmHg 94%
    04:00 -6°C° 0 mm 2 mps 748 mmHg 94%
    05:00 -6°C° 0 mm 2 mps 748 mmHg 94%
    06:00 -7°C° 0 mm 2 mps 747 mmHg 94%
    07:00 -6°C° 0 mm 2 mps 747 mmHg 94%
    08:00 -6°C° 0 mm 2 mps 747 mmHg 94%
    09:00 -6°C° 0 mm 2 mps 747 mmHg 94%
    10:00 -6°C° 0 mm 2 mps 746 mmHg 93%
    11:00 -3°C° 0 mm 1 mps 746 mmHg 92%
    12:00 -3°C° 0 mm 1 mps 746 mmHg 90%
    13:00 -3°C° 0.1 mm 1 mps 745 mmHg 92%
    14:00 -3°C° 0.1 mm 1 mps 745 mmHg 93%
    15:00 -4°C° 0.1 mm 1 mps 744 mmHg 95%
    16:00 -4°C° 0.2 mm 1 mps 744 mmHg 95%
    17:00 -4°C° 0.2 mm 1 mps 744 mmHg 96%
    18:00 -4°C° 0.2 mm 1 mps 744 mmHg 96%
    19:00 -6°C° 0.1 mm 1 mps 743 mmHg 96%
    20:00 -6°C° 0.1 mm 1 mps 743 mmHg 96%
    21:00 -6°C° 0.1 mm 1 mps 743 mmHg 96%
    22:00 -6°C° 0 mm 1 mps 743 mmHg 96%
    23:00 -7°C° 0 mm 2 mps 743 mmHg 96%
    Show more